Regional Weather Roundup
Issued by NWS Jackson, KY

Home | Current Version | Previous Version | Text Only | Print | Product List | Glossary On
Versions: 1 2 3 4 5 6 7 8 9 10 11 12 13 14 15 16 17 18 19 20 21 22 23 24 25 26 27 28 29 30 31 32 33 34 35 36 37 38 39 40 41 42 43 44 45 46 47 48 49 50
344
ASUS43 KJKL 201510
RWRJKL

EAST KENTUCKY HOURLY WEATHER ROUNDUP
NATIONAL WEATHER SERVICE JACKSON KY
1000 AM EST MON FEB 20 2017

NOTE: "FAIR" INDICATES FEW OR NO CLOUDS BELOW 12,000 FEET WITH
NO SIGNIFICANT WEATHER AND/OR OBSTRUCTIONS TO VISIBILITY.

* THESE REPORTS ARE NOT UNDER NWS QUALITY CONTROL AND MAY NOT
  REPORT WEATHER SUCH AS PRECIPITATION AND FOG.

KYZ079-080-083-085-087-088-110-112-115-119-120-201600
...EASTERN KENTUCKY...

CITY           SKY/WX    TMP DP  RH WIND       PRES   REMARKS
JACKSON        SUNNY     51  44  77 E3        30.24F
LONDON         SUNNY     52  45  77 CALM      30.23F
SOMERSET*      MOSUNNY   50  46  87 CALM      30.24F
MONTICELLO*    MOSUNNY   54  49  83 VRB7      30.24F
WILLIAMSBURG*  SUNNY     50  48  93 SE6       30.23F
MIDDLESBORO*   FOG       41  41 100 CALM      30.26F VSB<1/4
HARLAN APT*    CLOUDY    41  41 100 CALM      30.25F VSB 1/4
PIKE CO APT*     N/A     51  46  83 SE3       30.25S
BIG SANDY APT* CLOUDY    49  49  99 CALM      30.25F
MOREHEAD APT*  CLOUDY    50  48  93 E5        30.26S
ASHLAND*       CLOUDY    41  39  93 SE5       30.26F VSB<1/4
$$

KYZ035-036-041-042-044-050-067-078-099-201600
...CENTRAL KENTUCKY...

CITY           SKY/WX    TMP DP  RH WIND       PRES   REMARKS
MT STERLING*   CLOUDY    46  46 100 SE5       30.25S
FLEMING/MASON* FOG       43  43 100 CALM      30.26S VSB 1/2
DANVILLE*      SUNNY     46  46 100 CALM      30.23F
LEXINGTON      MOSUNNY   54  47  77 SE8       30.22F
FRANKFORT      CLOUDY    44  41  89 E3        30.21F FOG
LOUISVILLE     CLOUDY    45  44  97 CALM      30.20F FOG
LEBANON*         N/A     55  50  82 CALM      30.21F
GLASGOW*       CLOUDY    53  50  91 E3        30.19S
BOWLING GREEN  CLOUDY    50  48  93 E3        30.19S FOG
$$

KYZ091>093-OHZ055-061-077-WVZ005-015-034-035-042-201600
...SOUTHERN OHIO/WEST VIRGINIA...

CITY           SKY/WX    TMP DP  RH WIND       PRES   REMARKS
COVINGTON      FOG       45  45 100 E6        30.23S VSB<1/4
COLUMBUS       FOG       41  39  93 S5        30.28R VSB 1/8
DAYTON         FOG       41  41 100 E6        30.25F VSB 1/16
WILMINGTON     CLOUDY    48  47  96 SE5       30.25S FOG
HUNTINGTON     FOG       39  39 100 E3        30.26F VSB 1/8
CHARLESTON     FOG       40  39  97 NE5       30.28F VSB 1/4
PINEVILLE*     FOG       40  38  92 MISG      30.32F VSB 3/4
BECKLEY        CLOUDY    48  45  89 CALM      30.27S
BLUEFIELD      CLOUDY    48  43  82 W5        30.28R
LOGAN CO APT*  FOG       45  45 100 CALM      30.26F VSB<1/4
$$

VAZ002-007-008-TNZ017-027-036-066-071-201600
...SOUTHWEST VIRGINIA/EAST TENNESSEE...

CITY           SKY/WX    TMP DP  RH WIND       PRES   REMARKS
WISE*          SUNNY     55  41  58 CALM      30.27S
JONESVILLE*      N/A     50  43  76 CALM      30.26F
ABINGDON*      SUNNY     52  48  85 E9        30.25F
BRISTOL        MOSUNNY   47  42  83 SE3       30.26F
MORRISTOWN*    SUNNY     55  46  71 E5        30.23S
SEVIERVILLE*   SUNNY     48  39  71 CALM      30.23F
KNOXVILLE      CLOUDY    51  44  77 CALM      30.23S
LAFOLLETTE*    SUNNY     50  46  87 CALM      30.27F
OAK RIDGE      CLOUDY    53  45  74 E7        30.25S
CROSSVILLE     SUNNY     56  45  66 SE6       30.23S
NASHVILLE      CLOUDY    56  50  80 CALM      30.18S
$$

...KEY TO REMARKS...
VSB - VISIBILITY IN MILES
WCI - WIND CHILL INDEX
HX  - HEAT INDEX

$$




USA.gov is the U.S. government's official web portal to all federal, state and local government web resources and services.